Hourly Data Report for November 10, 2019

CARBERRY CS
MANITOBA
Current Station Operator: ECCC - MSC

49°54'20.900" N
99°21'26.800" W
383.50 m
5010547
71170
WZE

Download Data

Hourly Data (November 2019)
Hourly Data Report for November 10, 2019
TIME
LST
Temp Definition
°C
Dew Point Definition
°C
Rel Hum Definition
%
Precip. Amount Definition
mm

Wind Dir Definition
10's deg

Wind Spd Definition
km/h
Visibility Definition
km
Stn Press Definition
kPa
Hmdx Definition


Wind Chill Definition


Weather Definition


00:00 -11.5 -14.6 78 0.2 35 12   97.77   -18 LegendNANA
01:00 -11.4 -14.7 77 0.0 36 18   97.86   -19 LegendNANA
02:00 -11.8 -15.8 72 0.0 36 17   97.92   -19 LegendNANA
03:00 -12.1 -16.2 72 0.0 36 13   97.97   -19 LegendNANA
04:00 -12.6 -16.6 72 0.0 1 13   97.96   -19 LegendNANA
05:00 -13.0 -15.9 79 0.0 36 9   98.04   -18 LegendNANA
06:00 -13.0 -15.7 80 0.0 35 11   98.15   -19 LegendNANA
07:00 -13.3 -16.8 75 0.0 34 8   98.21   -18 LegendNANA
08:00 -13.5 -16.9 76 0.0 34 7   98.25   -18 LegendNANA
09:00 -13.2 -16.4 77 0.0 31 6   98.28   -17 LegendNANA
10:00 -11.5 -16.4 67 0.0 30 11   98.33   -17 LegendNANA
11:00 -11.3 -16.5 65 0.0 31 14   98.41   -18 LegendNANA
12:00 -11.4 -17.6 60 0.0 31 14   98.43   -18 LegendNANA
13:00 -11.2 -17.5 59 0.0 32 11   98.42   -17 LegendNANA
14:00 -10.6 -16.9 60 0.0 32 11   98.42   -16 LegendNANA
15:00 -10.5 -15.2 69 0.0 1 10   98.43   -16 LegendNANA
16:00 -11.3 -18.1 58 0.0 33 13   98.46   -18 LegendNANA
17:00 -12.7 -15.9 77 0.0 35 9   98.53   -18 LegendNANA
18:00 -14.5 -16.7 83 0.0 34 5   98.60   -18 LegendNANA
19:00 -14.6 -17.1 81 0.0 34 9   98.69   -20 LegendNANA
20:00 -16.2 -18.8 81 0.0 36 5   98.73   -20 LegendNANA
21:00 -17.1 -19.7 80 0.0 28 3   98.77   -19 LegendNANA
22:00 -18.0 -20.4 81 0.0 25 5   98.80   -22 LegendNANA
23:00 -17.0 -20.1 77 0.0 29 13   98.85   -25 LegendNANA

Notes on Data Quality.

Legend

  • E = Estimated
  • M = Missing
  • NA = Not Available*
  • [empty] = Indicates an unobserved value
Date modified: